Precipitable_Water
0.82 0.83 0.86 0.91 0.87 0.89 0.91 0.96 1.03 1.05 1.08 1.10 1.12 1.14 1.16 1.16 1.18 1.23 1.24 1.27 1.37 1.47
0.86 0.87 0.84 0.88 0.95 0.96 1.01 0.99 1.01 1.05 1.06 1.11 1.16 1.21 1.24 1.20 1.19 1.20 1.18 1.20 1.26 1.28
0.82 0.89 0.88 0.90 0.92 0.97 1.01 1.04 1.04 1.03 1.07 1.08 1.13 1.15 1.17 1.18 1.27 1.30 1.30 1.29 1.24 1.22
0.80 0.86 0.85 0.85 0.94 1.00 1.04 1.05 0.97 1.00 1.06 1.09 1.11 1.15 1.13 1.16 1.18 1.23 1.24 1.22 1.21 1.22
0.85 0.87 0.86 0.89 0.94 0.95 1.00 1.04 0.93 0.98 1.06 1.11 1.08 1.12 1.14 1.13 1.18 1.23 1.22 1.24 1.25 1.24
0.86 0.89 0.91 0.92 0.95 0.91 0.90 0.89 0.95 1.02 1.05 1.06 1.06 1.10 1.14 1.20 1.19 1.21 1.21 1.15 1.18 1.21
0.86 0.92 0.95 0.97 1.00 1.03 1.07 0.99 0.95 1.00 1.05 1.03 1.09 1.12 1.16 1.14 1.18 1.15 1.19 1.20 1.20 1.32
0.89 0.96 0.96 0.99 1.03 1.09 1.09 1.04 1.03 1.02 1.04 1.03 1.06 1.11 1.12 1.05 1.11 1.05 1.12 1.17 1.19 1.39
0.92 0.99 0.99 1.01 1.08 1.10 1.08 1.09 1.08 1.04 1.00 1.02 1.10 1.11 1.03 1.01 1.03 1.00 1.01 1.10 1.20 1.37
0.98 0.99 1.03 1.05 1.08 1.08 1.08 1.07 1.00 1.00 1.01 1.04 1.08 1.03 0.98 0.94 0.97 0.97 0.99 1.11 1.20 1.20
0.98 1.00 1.05 1.03 1.04 1.05 1.10 1.05 1.00 0.97 0.97 0.99 0.99 0.94 0.90 0.90 0.94 1.06 1.14 1.12 1.19 1.23
1.02 1.06 1.11 1.10 1.11 1.08 1.03 0.96 0.91 1.01 1.02 0.98 0.97 0.96 0.93 0.91 1.00 1.13 1.18 1.14 1.18 1.21
1.05 1.11 1.08 1.07 1.01 1.04 1.04 1.00 1.02 1.05 1.08 1.08 1.00 1.00 0.97 1.04 1.10 1.09 1.09 1.09 1.07 1.16
1.10 1.19 1.19 1.03 1.07 1.06 1.05 1.03 1.07 1.10 1.13 1.12 1.06 1.05 1.03 1.06 1.07 1.08 1.08 0.98 0.93 1.07
Wind_Speed
18 18 19 19 21 21 22 23 24 24 24 24 23 23 23 24 25 27 30 32 33 33
19 18 19 20 21 22 22 22 22 23 23 22 22 22 23 24 27 29 30 32 33 35
20 19 20 21 22 22 22 22 22 23 23 23 23 23 24 25 26 28 28 30 32 35
20 20 21 22 22 22 22 22 22 24 24 23 23 23 23 24 25 27 27 28 32 34
21 22 23 23 23 23 23 23 25 25 25 25 25 25 25 26 27 28 28 30 32 35
22 23 23 23 23 23 24 25 27 27 26 27 26 26 26 26 26 27 27 30 31 33
23 23 24 23 24 25 26 27 27 27 27 26 26 26 25 24 25 27 27 29 32 30
24 24 24 24 25 26 27 27 27 27 27 27 27 25 23 24 24 26 27 28 32 26
25 25 25 26 27 27 27 27 27 28 28 27 26 23 22 23 23 25 26 27 28 21
24 25 25 26 26 26 27 27 27 27 27 26 24 22 22 23 23 23 24 25 26 22
24 25 26 26 26 27 28 28 28 28 26 23 22 22 22 22 22 22 23 25 25 24
25 26 27 27 27 28 29 28 28 26 23 22 21 21 21 21 22 22 24 25 25 24
26 26 26 27 29 29 27 26 25 23 21 20 20 19 20 20 20 22 23 25 26 25
27 27 28 29 28 27 26 25 23 21 21 21 18 18 19 19 19 21 23 24 25 24
Wind_Direction
315 312 313 315 317 317 317 316 316 315 314 310 305 301 296 292 290 286 277 270 265 261
314 311 312 313 314 315 316 315 316 316 314 310 308 305 301 298 294 290 282 274 268 263
312 310 311 311 312 313 313 314 315 315 312 308 306 306 305 303 302 297 288 278 272 266
310 309 310 310 310 311 311 312 313 314 313 308 305 306 307 307 307 306 297 288 278 272
309 309 309 308 308 309 309 308 310 311 310 307 304 302 303 306 306 307 303 299 287 278
308 308 308 308 307 307 308 308 308 308 305 305 304 303 301 302 307 310 308 309 299 288
307 308 307 308 307 307 308 307 308 308 305 305 304 303 302 304 306 311 309 312 313 297
306 307 306 307 307 308 307 306 306 307 305 303 302 301 300 304 307 312 313 318 322 309
305 305 306 306 307 308 308 307 305 305 305 303 301 297 298 303 306 312 315 319 325 320
304 304 306 308 307 307 309 309 307 306 305 302 300 296 297 300 303 310 317 322 327 320
303 304 305 307 306 307 309 309 308 307 305 300 300 296 296 299 301 305 312 320 324 323
300 302 304 304 305 307 307 309 308 305 303 301 301 299 298 297 300 302 311 317 318 322
299 300 303 305 306 305 306 308 311 306 302 302 303 303 301 300 300 304 310 317 320 320
298 297 301 305 305 304 304 305 306 305 302 301 301 306 308 306 303 306 311 317 322 323